This demonstration page uses our WeatherBlox Daily Observations layout. Learn more.

Left ArrowRight Arrow

40.97296, -117.73568

Hourly Observations for August 25, 2020

Temp ( °F °C ) Dew Point ( °F °C ) Humidity (%) Winds ( mph kmh ) Pressure ( in mb ) Visibility ( mi km ) Precip ( " mm )
12:56 am 00:56 Clear 68 20 55 12.8 63 63 E 12 19 29.86 1011 10 16 0.00 0.00
1:56 am 01:56 Mostly Clear 68 20 55 12.8 63 63 NE 12 19 29.85 1011 10 16 0.00 0.00
2:56 am 02:56 Mostly Cloudy 67 19.4 56 13.3 68 68 WNW 10 17 29.91 1013 10 16 0.00 0.00
3:56 am 03:56 Clear 63 17.2 55 12.8 76 76 E 3 6 29.85 1011 10 16 0.02 0.51
4:33 am 04:33 Mostly Cloudy with Nearby Thunderstorms 66 18.9 55 12.8 68 68 SSE 14 22 29.88 1012 10 16 0.00 0.00
4:52 am 04:52 Partly Cloudy with Light Rain 64 18 55 13 73 73 S 6 9 29.86 1011 10 16 0.00 0.00
5:56 am 05:56 Clear 64 17.8 55 12.8 73 73 ESE 8 13 29.88 1012 9 14 0.01 0.25
6:56 am 06:56 Sunny 63 17.2 55 12.8 76 76 S 6 9 29.88 1012 9 14 0.00 0.00
7:56 am 07:56 Sunny 65 18.3 56 13.3 73 73 E 7 11 29.90 1013 9 14 0.00 0.00
8:56 am 08:56 Sunny 70 21.1 56 13.3 61 61 ENE 9 15 29.91 1013 10 16 0.00 0.00
9:56 am 09:56 Mostly Sunny 73 22.8 56 13.3 55 55 ENE 8 13 29.91 1013 10 16 0.00 0.00
10:56 am 10:56 Partly Cloudy 76 24.4 54 12.2 47 47 Calm 29.90 1013 10 16 0.00 0.00
11:56 am 11:56 Mostly Sunny 82 27.8 51 10.6 34 34 ENE 5 7 29.88 1012 10 16 0.00 0.00
12:56 pm 12:56 Sunny 86 30 48 8.9 27 27 NNW 5 7 29.85 1011 10 16 0.00 0.00
1:56 pm 13:56 Sunny 91 32.8 41 5 17 17 VRB 7 11 29.81 1009 8 13 0.00 0.00
2:56 pm 14:56 undefined 91 32.8 40 4.4 17 17 VRB 3 6 29.79 1009 9 14 0.00 0.00
3:56 pm 15:56 Mostly Sunny 90 32.2 42 5.6 19 19 Calm 29.78 1008 8 13 0.00 0.00
4:56 pm 16:56 Partly Cloudy 91 32.8 40 4.4 17 17 VRB 6 9 29.75 1008 7 11 0.00 0.00
5:56 pm 17:56 Partly Cloudy 91 32.8 39 3.9 16 16 VRB 5 7 29.74 1007 7 11 0.00 0.00
6:56 pm 18:56 Partly Cloudy 87 30.6 41 5 20 20 NW 7 11 29.75 1007 7 11 0.00 0.00
7:56 pm 19:56 Mostly Clear 82 27.8 43 6.1 25 25 N 5 7 29.76 1008 8 13 0.00 0.00
8:56 pm 20:56 Mostly Clear 79 26.1 41 5 26 26 NNW 10 17 29.78 1009 9 14 0.00 0.00
9:56 pm 21:56 Clear 75 23.9 41 5 29 29 NW 7 11 29.81 1009 9 14 0.00 0.00
10:56 pm 22:56 Clear 77 25 42 5.6 29 29 NNE 5 7 29.80 1009 8 13 0.00 0.00
11:56 pm 23:56 Clear 67 19.4 42 5.6 41 41 WNW 6 9 29.81 1010 9 14 0.00 0.00

Powered by AerisWeather